Regional Weather Roundup
Issued by NWS

Home | Current Version | Previous Version | Text Only | Print | Product List | Glossary On
Versions: 1 2 3 4 5 6 7 8 9 10 11 12 13 14 15 16 17 18 19 20 21 22 23 24 25 26 27 28 29 30 31 32 33 34 35 36 37 38 39 40 41 42 43 44 45 46 47 48 49 50
000
ASUS44 KLIX 241310
RWRLA
LOUISIANA WEATHER ROUNDUP
NATIONAL WEATHER SERVICE NEW ORLEANS LA
800 AM CDT FRI OCT 24 2014

NOTE: "FAIR" INDICATES FEW OR NO CLOUDS BELOW 12,000 FEET WITH NO
      SIGNIFICANT WEATHER AND/OR OBSTRUCTIONS TO VISIBILITY.
      SKY/WX - SKY CONDITION AND SIGNIFICANT WEATHER.
      TMP - AIR TEMPERATURE.    DP   - DEWPOINT TEMPERATURE.
      RH  - RELATIVE HUMIDITY.  PRES - PRESSURE.
      HX  - HEAT INDEX.         WCI  - WIND CHILL INDEX.

*  THESE STATIONS ARE NOT NWS OR FAA STATIONS AND ARE NOT UNDER
   NWS QUALITY CONTROL.

LAZ040-048-061>063-065-066-069-241400-
SOUTHEAST LOUISIANA

CITY           SKY/WX    TMP DP  RH WIND       PRES   REMARKS
N.O. AUDUBON     N/A     59  53  79 MISG        N/A
N.O. INTL ARPT PTCLDY    60  52  74 NE8       30.10R
N.O. LAKEFRONT CLEAR     63  52  67 E9        30.10R
N.O. DOWNTOWN* FAIR      61  46  59 NE6       30.10S
SLIDELL        CLEAR     50  46  86 N3        30.10R
BATON ROUGE    CLEAR     50  48  93 CALM      30.12S
BOOTHVILLE     SUNNY     67  57  70 N6        30.08R
BELLE CHASSE   PTCLDY    54  50  86 CALM      30.10R
BOGALUSA*        N/A     47  45  91 CALM      30.13R
NEW ROADS*     FAIR      48  47  96 CALM      30.13S
GONZALES*      FAIR      51  51 100 N3        30.12R
HAMMOND*       CLEAR     50  48  93 CALM      30.13S
HOUMA*         NOT AVBL
PORT FOURCHON* SUNNY     64  57  77 NE7       30.12S

$$

LAZ041-044-053-054-241400-
SOUTHWEST LOUISIANA

CITY           SKY/WX    TMP DP  RH WIND       PRES   REMARKS
LAKE CHARLES   CLEAR     52  49  89 NE6       30.14R
LAFAYETTE      CLEAR     51  49  92 N5        30.13R
PATTERSON      CLEAR     54  52  94 N5        30.13R
SALT POINT       N/A     56  53  90 VRB3      30.10R
NEW IBERIA     CLEAR     52  49  89 N8        30.13R
CHENAULT AIRPK CLEAR     52  48  87 VRB3      30.15R

$$

LAZ027-028-241400-
CENTRAL LOUISIANA

CITY           SKY/WX    TMP DP  RH WIND       PRES   REMARKS
FORT POLK      CLEAR     51  49  91 NE6       30.14S
ALEXANDRIA INT CLEAR     46  46 100 CALM      30.14R
ALEXANDRIA     CLEAR     45  44  97 CALM      30.16R

$$

LAZ001-002-241400-
NORTHWEST LOUISIANA

CITY           SKY/WX    TMP DP  RH WIND       PRES   REMARKS
SHREVEPORT     CLEAR     50  48  93 CALM      30.17R
BARKSDALE AFB  CLEAR     49  48  98 CALM      30.17R
DTN SHREVEPORT CLEAR     50  47  89 CALM      30.17R

$$

LAZ014-016-241400-
NORTHEAST LOUISIANA

CITY           SKY/WX    TMP DP  RH WIND       PRES   REMARKS
MONROE         CLEAR     46  44  93 CALM      30.17S
TALLULAH       FOG       44  43  96 CALM      30.16R VSB 1

$$




USA.gov is the U.S. government's official web portal to all federal, state and local government web resources and services.